This demonstration page uses our WeatherBlox Daily Observations layout. Learn more.

39.92423, -83.80882

Hourly Observations for May 24, 2017

Temp ( °F °C ) Dew Point ( °F °C ) Humidity (%) Winds ( mph kmh ) Pressure ( in mb ) Visibility ( mi km ) Precip ( " mm )
12:56 am 00:56 Clear 61 16.1 56 13.3 84 84 SSE 7 11 29.64 1004 10 16.0934 0 0
1:56 am 01:56 Clear 60 15.6 57 13.9 90 90 SE 6 9 29.62 1003 10 16.0934 0 0
2:56 am 02:56 Clear 60 15.6 58 14.4 93 93 SE 5 7 29.6 1002 10 16.0934 0 0
3:56 am 03:56 Partly Cloudy 58 14.4 57 13.9 97 97 SE 5 7 29.59 1002 10 16.0934 0 0
4:37 am 04:37 Partly Cloudy with Mist and Fog 57 14 57 14 100 100 ESE 6 9 29.56 1001 5 8.0467 0 0
4:54 am 04:54 Mostly Cloudy with Mist and Fog 57 14 57 14 100 100 ESE 6 9 29.56 1001 5 8.0467 0 0
4:56 am 04:56 Mostly Cloudy with Mist and Fog 58 14.4 58 14.4 100 100 SE 6 9 29.58 1002 5 8.0467 0 0
5:03 am 05:03 Cloudy with Mist and Fog 59 15 59 15 100 100 SE 7 11 29.56 1001 6 9.65604 0 0
5:24 am 05:24 Mostly Cloudy 59 15 57 14 94 94 SSE 7 11 29.56 1001 7 11.26538 0 0
5:42 am 05:42 Mostly Clear with Mist and Fog 59 15 57 14 94 94 SE 6 9 29.56 1001 6 9.65604 0 0
5:56 am 05:56 Mostly Clear with Mist and Fog 58 14.4 57 13.9 97 97 SE 7 11 29.57 1001 5 8.0467 0 0
6:38 am 06:38 Sunny with Mist and Fog 55 13 55 13 100 100 E 6 9 29.59 1002 2.5 4.02335 0 0
6:45 am 06:45 Partly Cloudy with Mist and Fog 57 14 55 13 94 94 E 5 7 29.56 1001 3 4.82802 0 0
6:56 am 06:56 Mostly Cloudy with Mist and Fog 58 14.4 57 13.9 97 97 ESE 5 7 29.57 1001 4 6.43736 0 0
7:56 am 07:56 Sunny 60 15.6 59 15 96 96 SE 6 9 29.56 1001 9 14.48406 0 0
8:56 am 08:56 Mostly Sunny 62 16.7 59 15 90 90 E 8 13 29.55 1001 10 16.0934 0 0
9:49 am 09:49 Mostly Cloudy 64 18 59 15 83 83 E 13 20 29.53 1000 10 16.0934 0 0
9:56 am 09:56 Cloudy 64 17.8 59 15 84 84 E 12 19 29.54 1000 10 16.0934 0 0
10:23 am 10:23 Mostly Cloudy 64 18 57 14 78 78 ESE 13 20 29.53 1000 10 16.0934 0 0
10:56 am 10:56 Cloudy 63 17.2 58 14.4 84 84 E 14 22 29.53 1000 10 16.0934 0 0
11:56 am 11:56 Cloudy 64 17.8 58 14.4 81 81 ESE 12 19 29.51 999 10 16.0934 0 0
12:56 pm 12:56 Cloudy 67 19.4 59 15 76 76 E 16 26 29.48 998 10 16.0934 0 0
1:06 pm 13:06 Cloudy 66 19 59 15 78 78 E 16 26 29.5 999 10 16.0934 0 0
1:23 pm 13:23 Cloudy 66 19 59 15 78 78 ESE 13 20 29.5 999 10 16.0934 0 0
1:46 pm 13:46 Cloudy 64 18 59 15 83 83 E 16 26 29.47 998 10 16.0934 0 0
1:56 pm 13:56 Mostly Cloudy 67 19.4 60 15.6 79 79 E 16 26 29.46 998 10 16.0934 0 0
2:09 pm 14:09 Cloudy 66 19 59 15 78 78 E 13 20 29.47 998 10 16.0934 0 0
2:31 pm 14:31 Cloudy 66 19 57 14 73 73 ESE 13 20 29.47 998 10 16.0934 0 0
2:56 pm 14:56 Cloudy 68 20 60 15.6 76 76 E 16 26 29.44 997 10 16.0934 0 0
3:27 pm 15:27 Mostly Cloudy 70 21 59 15 69 69 E 17 28 29.41 996 10 16.0934 0 0
3:56 pm 15:56 Mostly Cloudy 68 20 59 15 73 73 E 17 28 29.43 997 10 16.0934 0 0
4:56 pm 16:56 Cloudy 67 19.4 58 14.4 73 73 E 14 22 29.41 996 10 16.0934 0 0
5:20 pm 17:20 Cloudy 66 19 57 14 73 73 E 16 26 29.41 996 10 16.0934 0 0
5:56 pm 17:56 Cloudy 67 19.4 59 15 76 76 E 14 22 29.39 995 10 16.0934 0 0
6:56 pm 18:56 Cloudy 66 18.9 59 15 78 78 E 15 24 29.37 995 10 16.0934 0 0
7:56 pm 19:56 Mostly Cloudy with Light Rain 64 17.8 61 16.1 90 90 E 14 22 29.36 994 10 16.0934 0 0.0254
8:56 pm 20:56 Cloudy 64 17.8 61 16.1 90 90 E 13 20 29.34 994 10 16.0934 0 0.0254
9:36 pm 21:36 Cloudy 64 18 61 16 88 88 SE 13 20 29.35 994 10 16.0934 0 0
9:56 pm 21:56 Cloudy 64 17.8 60 15.6 87 87 ESE 14 22 29.34 994 10 16.0934 0 0
10:16 pm 22:16 Cloudy with Nearby Thunderstorms 64 18 61 16 88 88 ESE 12 19 29.35 994 10 16.0934 0 0
10:34 pm 22:34 Cloudy with Nearby Thunderstorms 63 17 61 16 94 94 ESE 10 17 29.38 995 10 16.0934 0 0
10:44 pm 22:44 Cloudy 64 18 61 16 88 88 SSE 14 22 29.38 995 10 16.0934 0 0
10:54 pm 22:54 Cloudy with Nearby Thunderstorms 61 16 57 14 88 88 VRB 5 7 29.38 995 10 16.0934 0 0
10:56 pm 22:56 Cloudy with Nearby Thunderstorms 61 16.1 58 14.4 90 90 SW 8 13 29.37 995 10 16.0934 0 0
11:03 pm 23:03 Cloudy with Nearby Thunderstorms 61 16 57 14 88 88 VRB 6 9 29.38 995 10 16.0934 0 0
11:17 pm 23:17 Cloudy with Heavy Rain 61 16 57 14 88 88 W 6 9 29.38 995 7 11.26538 0.03 0.762
11:27 pm 23:27 Cloudy with Light Thunderstorms 59 15 57 14 94 94 WSW 6 9 29.38 995 7 11.26538 0.11 2.794
11:54 pm 23:54 Cloudy with Heavy Rain 59 15 57 14 94 94 ENE 7 11 29.35 994 3 4.82802 0.24 6.096
11:56 pm 23:56 Cloudy with Heavy Rain 59 15 58 14.4 96 96 ENE 8 13 29.36 994 2.5 4.02335 0.25 6.35
11:58 pm 23:58 Cloudy with Heavy Rain 59 15 57 14 94 94 E 6 9 29.35 994 3 4.82802 0.01 0.254

Powered by AerisWeather